"2016-05-05 00:00:00",1605531,4.122,119.3,4.568,0.342,19.14,107.5548,18.62,19.66,20.4,0,111,13.06,19.43,81.3
"2016-05-05 00:00:30",1605532,3.618,114.6,2.851,0.396,19.08,107.5548,18.62,19.65,20.38,0,111,13.05,19.43,76.6
"2016-05-05 00:01:00",1605533,3.99,114.4,3.795,0.384,19.18,107.5548,18.62,19.66,20.59,0,111,13.05,19.43,76.4
"2016-05-05 00:01:30",1605534,3.952,122.8,5.167,0.417,19.16,107.5551,18.62,19.66,20.8,0,111,13.05,19.44,84.8
"2016-05-05 00:02:00",1605535,2.816,121.9,9.91,0.76,19.15,107.5551,18.62,19.64,20.71,0,111,13.05,19.44,83.9
"2016-05-05 00:02:30",1605536,3.487,121.1,11.84,0.316,19.11,107.5385,18.58,19.65,20.54,0,111,13.05,19.39,83.1
"2016-05-05 00:03:00",1605537,3.228,119.4,3.51,0.39,19.21,107.5208,18.53,19.6,20.75,0,111,13.04,19.35,81.4
"2016-05-05 00:03:30",1605538,3.35,111.5,6.102,0.461,19.26,107.4936,18.46,19.55,21.32,0,111,13.05,19.28,73.5
"2016-05-05 00:04:00",1605539,3.633,124.3,8.81,0.701,19.23,107.4719,18.41,19.49,21.31,0,111,13.04,19.22,86.3
"2016-05-05 00:04:30",1605540,4.393,130.4,3.583,0.628,19.14,107.4545,18.36,19.44,21.01,0,111,13.04,19.18,92.4
"2016-05-05 00:05:00",1605541,4.162,128.5,5.447,0.324,19.19,107.4536,18.36,19.4,20.65,0,111,13.04,19.17,90.5
"2016-05-05 00:05:30",1605542,3.833,120.8,4.803,0.252,19.16,107.4531,18.36,19.37,20.55,0,111,13.04,19.17,82.8
"2016-05-05 00:06:00",1605543,3.793,114.4,2.437,0.225,19.09,107.4536,18.36,19.37,20.59,0,111,13.04,19.17,76.4
"2016-05-05 00:06:30",1605544,4.212,119.6,1.41,0.239,19.14,107.4542,18.36,19.35,20.56,0,111,13.04,19.18,81.6
"2016-05-05 00:07:00",1605545,4.411,115.9,6.155,0.257,19.18,107.4554,18.36,19.36,20.77,0,111,13.04,19.18,77.9
"2016-05-05 00:07:30",1605546,3.773,111.5,3.304,0.356,19.18,107.4557,18.36,19.36,21.02,0,111,13.04,19.18,73.5
"2016-05-05 00:08:00",1605547,3.202,125.8,3.843,0.191,19.18,107.4566,18.37,19.35,21.37,0,111,13.04,19.18,87.8
"2016-05-05 00:08:30",1605548,3.765,128.8,3.323,0.275,19.27,107.4585,18.37,19.37,21.28,0,111,13.05,19.19,90.8
"2016-05-05 00:09:00",1605549,4.074,132.9,7.632,0.297,19.35,107.4618,18.38,19.35,21.41,0,111,13.05,19.20,94.9
"2016-05-05 00:09:30",1605550,3.893,137.8,3.801,0.391,19.36,107.4562,18.36,19.35,21.32,0,111,13.05,19.18,99.8
"2016-05-05 00:10:00",1605551,4.278,125.6,5.388,0.46,19.24,107.4343,18.31,19.35,20.86,0,111,13.05,19.12,87.6
"2016-05-05 00:10:30",1605552,4.846,129.6,2.663,0.277,19.24,107.4299,18.3,19.32,20.23,0,111,13.05,19.11,91.6
"2016-05-05 00:11:00",1605553,4.337,130.6,1.009,0.466,19.23,107.4314,18.3,19.31,20.09,0,111,13.05,19.12,92.6
"2016-05-05 00:11:30",1605554,3.639,129.6,3.072,0.295,19.25,107.4347,18.31,19.31,20.09,0,111,13.05,19.13,91.6
"2016-05-05 00:12:00",1605555,3.982,123.6,2.239,0.129,19.18,107.4386,18.32,19.29,19.94,0,111,13.06,19.14,85.6
"2016-05-05 00:12:30",1605556,3.883,122.6,2.387,0.102,19.23,107.4394,18.32,19.3,19.79,0,111,13.05,19.14,84.6
"2016-05-05 00:13:00",1605557,3.564,119.3,1.634,0.282,19.13,107.4504,18.35,19.3,19.72,0,111,13.05,19.17,81.3
"2016-05-05 00:13:30",1605558,3.271,124.4,2.384,0.175,19.14,107.4589,18.37,19.32,19.69,0,111,13.05,19.19,86.4
"2016-05-05 00:14:00",1605559,3.79,116.9,4.402,0.386,19.14,107.4621,18.38,19.32,19.82,0,111,13.05,19.20,78.9
"2016-05-05 00:14:30",1605560,3.253,108.9,3.351,0.196,19.14,107.4736,18.41,19.34,19.88,0,111,13.06,19.23,70.9
"2016-05-05 00:15:00",1605561,3.775,111.7,4.254,0.136,19.09,107.4793,18.42,19.35,19.88,0,111,13.06,19.24,73.7
"2016-05-05 00:15:30",1605562,3.717,115.6,2.534,0.099,19.09,107.4814,18.43,19.36,19.78,0,111,13.06,19.25,77.6
"2016-05-05 00:16:00",1605563,3.532,115.4,2.174,0.112,19.14,107.4823,18.43,19.36,19.77,0,111,13.06,19.25,77.4
"2016-05-05 00:16:30",1605564,3.744,117.8,1.42,0.317,19.12,107.4832,18.43,19.38,19.72,0,111,13.06,19.25,79.8
"2016-05-05 00:17:00",1605565,3.928,120.3,2.548,0.07,19.14,107.4823,18.43,19.38,19.61,0,111,13.06,19.25,82.3
"2016-05-05 00:17:30",1605566,4.116,120.2,1.055,0.095,19.26,107.4853,18.44,19.39,19.49,0,111,13.06,19.26,82.2
"2016-05-05 00:18:00",1605567,4.162,123.6,2.263,0.226,19.22,107.4865,18.44,19.4,19.39,0,111,13.06,19.26,85.6
"2016-05-05 00:18:30",1605568,4.695,123.5,2.286,0.176,19.24,107.4868,18.44,19.4,19.29,0,111,13.06,19.26,85.5
"2016-05-05 00:19:00",1605569,4.246,129.8,3.184,0.295,19.35,107.489,18.45,19.43,19.68,0,111,13.05,19.27,91.8
"2016-05-05 00:19:30",1605570,4.083,125.2,3.303,0.178,19.31,107.4896,18.45,19.42,19.85,0,111,13.06,19.27,87.2
"2016-05-05 00:20:00",1605571,4.131,123.7,4.317,0.205,19.31,107.4899,18.45,19.43,20.04,0,111,13.06,19.27,85.7
"2016-05-05 00:20:30",1605572,4.115,127.5,2.306,0.262,19.39,107.4899,18.45,19.43,20.39,0,111,13.05,19.27,89.5
"2016-05-05 00:21:00",1605573,3.817,126.3,3.808,0.315,19.37,107.4896,18.45,19.44,20.47,0,111,13.05,19.27,88.3
"2016-05-05 00:21:30",1605574,4.014,123.2,3.265,0.181,19.34,107.4899,18.45,19.45,20.35,0,111,13.05,19.27,85.2
"2016-05-05 00:22:00",1605575,4.413,124.8,2.884,0.322,19.38,107.4899,18.45,19.45,20.48,0,111,13.05,19.27,86.8
"2016-05-05 00:22:30",1605576,4.199,133.3,6.883,0.287,19.42,107.4899,18.45,19.45,20.79,0,111,13.05,19.27,95.3
"2016-05-05 00:23:00",1605577,3.975,130.2,4.904,0.4,19.42,107.4899,18.45,19.45,20.35,0,111,13.05,19.27,92.2
"2016-05-05 00:23:30",1605578,4.268,131.9,2.535,0.22,19.42,107.4899,18.45,19.45,20.52,0,111,13.05,19.27,93.9
"2016-05-05 00:24:00",1605579,3.846,120.6,2.578,0.308,19.43,107.4899,18.45,19.46,20.72,0,111,13.05,19.27,82.6
"2016-05-05 00:24:30",1605580,4.154,121.9,2.624,0.226,19.35,107.4899,18.45,19.45,20.99,0,111,13.05,19.27,83.9
"2016-05-05 00:25:00",1605581,3.886,122.3,2.34,0.341,19.37,107.4899,18.45,19.45,20.8,0,111,13.05,19.27,84.3
"2016-05-05 00:25:30",1605582,4.433,130.2,2.433,0.365,19.42,107.4899,18.45,19.46,20.58,0,111,13.05,19.27,92.2
"2016-05-05 00:26:00",1605583,3.862,134.3,3.86,0.286,19.45,107.4899,18.45,19.46,20.62,0,111,13.06,19.27,96.3
"2016-05-05 00:26:30",1605584,3.402,133.3,1.984,0.258,19.45,107.4899,18.45,19.46,20.5,0,111,13.06,19.27,95.3
"2016-05-05 00:27:00",1605585,3.305,137.1,8,0.325,19.64,107.4899,18.45,19.47,20.68,0,111,13.06,19.27,99.1
"2016-05-05 00:27:30",1605586,3.905,123.3,4.62,0.184,19.46,107.4899,18.45,19.46,20.59,0,111,13.06,19.27,85.3
"2016-05-05 00:28:00",1605587,4.022,126.3,2.264,0.287,19.48,107.4899,18.45,19.45,20.68,0,111,13.06,19.27,88.3
"2016-05-05 00:28:30",1605588,3.496,122.7,4.5,0.293,19.47,107.4899,18.45,19.46,20.75,0,111,13.06,19.27,84.7
"2016-05-05 00:29:00",1605589,3.273,121.9,3.86,0.146,19.4,107.4899,18.45,19.45,20.62,0,111,13.06,19.27,83.9
"2016-05-05 00:29:30",1605590,3.916,126,3.719,0.658,19.47,107.4873,18.44,19.44,20.97,0,111,13.06,19.26,88.0
"2016-05-05 00:30:00",1605591,4.118,125.9,4.846,0.409,19.53,107.4758,18.42,19.44,20.56,0,111,13.06,19.23,87.9
"2016-05-05 00:30:30",1605592,3.692,126.8,2.717,0.219,19.55,107.4663,18.39,19.4,19.83,0,111,13.06,19.21,88.8
"2016-05-05 00:31:00",1605593,3.536,121.4,3.204,0.12,19.53,107.4573,18.37,19.41,19.85,0,111,13.06,19.18,83.4
"2016-05-05 00:31:30",1605594,3.842,126.4,4.53,0.19,19.57,107.4564,18.37,19.4,20.06,0,111,13.06,19.18,88.4
"2016-05-05 00:32:00",1605595,3.894,131.1,2.178,0.232,19.71,107.4561,18.36,19.4,19.54,0,111,13.06,19.18,93.1
"2016-05-05 00:32:30",1605596,3.271,128,2.902,0.204,19.83,107.4561,18.36,19.39,20.09,0,111,13.06,19.18,90.0
"2016-05-05 00:33:00",1605597,3.279,125.1,2.803,0.281,19.93,107.4561,18.36,19.4,20.29,0,111,13.06,19.18,87.1
"2016-05-05 00:33:30",1605598,2.875,125.9,3.096,0.136,19.96,107.4561,18.36,19.4,20.14,0,111,13.06,19.18,87.9
"2016-05-05 00:34:00",1605599,3.01,127.2,3.324,0.125,19.89,107.4561,18.36,19.38,19.31,0,111,13.06,19.18,89.2
"2016-05-05 00:34:30",1605600,2.774,127.2,2.214,0.143,19.95,107.455,18.36,19.38,19.38,0,111,13.06,19.18,89.2
"2016-05-05 00:35:00",1605601,2.915,123.3,1.222,0.168,19.94,107.446,18.34,19.38,19.29,0,111,13.06,19.15,85.3
"2016-05-05 00:35:30",1605602,2.885,126,1.671,0.105,19.98,107.4339,18.31,19.38,18.85,0,111,13.06,19.12,88.0
"2016-05-05 00:36:00",1605603,3.031,120.7,5.068,0.21,19.91,107.423,18.28,19.37,19.07,0,111,13.06,19.10,82.7
"2016-05-05 00:36:30",1605604,2.902,118.5,3.899,0.191,19.81,107.4224,18.28,19.36,19.41,0,110.9,13.06,19.09,80.5
"2016-05-05 00:37:00",1605605,3.071,131.2,1.696,0.161,19.74,107.4239,18.28,19.36,19.33,0,110.9,13.06,19.10,93.2
"2016-05-05 00:37:30",1605606,3.084,127,3.616,0.108,19.63,107.4251,18.29,19.34,19.08,0,110.9,13.06,19.10,89.0
"2016-05-05 00:38:00",1605607,3.071,119.3,1.436,0.204,19.56,107.4255,18.29,19.35,19,0,110.9,13.06,19.10,81.3
"2016-05-05 00:38:30",1605608,3.206,123,2.353,0.201,19.5,107.4244,18.28,19.34,19.01,0,110.9,13.06,19.10,85.0
"2016-05-05 00:39:00",1605609,3.411,123.2,1.462,0.077,19.48,107.411,18.25,19.32,18.86,0,110.9,13.06,19.06,85.2
"2016-05-05 00:39:30",1605610,3.338,116.5,1.905,0.129,19.46,107.4034,18.23,19.32,19.03,0,111,13.06,19.05,78.5
"2016-05-05 00:40:00",1605611,3.176,113.9,1.868,0.134,19.39,107.3998,18.22,19.32,19.15,0,111,13.06,19.04,75.9
"2016-05-05 00:40:30",1605612,3.284,110.8,3.324,0.115,19.34,107.4016,18.22,19.3,19.18,0,111,13.06,19.04,72.8
"2016-05-05 00:41:00",1605613,3.369,111.1,1.961,0.092,19.29,107.4013,18.22,19.3,19.27,0,110.9,13.06,19.04,73.1
"2016-05-05 00:41:30",1605614,3.326,108.4,2.364,0.079,19.37,107.4007,18.22,19.31,19.23,0,110.9,13.06,19.04,70.4
"2016-05-05 00:42:00",1605615,3.449,110,2.308,0.066,19.33,107.4019,18.23,19.3,19.04,0,110.9,13.06,19.04,72.0
"2016-05-05 00:42:30",1605616,3.386,118.3,2.412,0.078,19.37,107.4022,18.23,19.29,19.04,0,110.9,13.06,19.04,80.3
"2016-05-05 00:43:00",1605617,3.509,119.8,1.945,0.188,19.36,107.4022,18.23,19.3,19.33,0,110.9,13.06,19.04,81.8
"2016-05-05 00:43:30",1605618,3.363,114.2,3.076,0.083,19.43,107.4053,18.23,19.3,19.3,0,111,13.07,19.05,76.2
"2016-05-05 00:44:00",1605619,3.338,114.9,2.753,0.081,19.4,107.4089,18.24,19.27,19.1,0,110.9,13.07,19.06,76.9
"2016-05-05 00:44:30",1605620,3.491,116.1,4.104,0.074,19.4,107.4128,18.25,19.29,19.12,0,110.9,13.07,19.07,78.1
"2016-05-05 00:45:00",1605621,3.67,114.5,1.275,0.071,19.45,107.4155,18.26,19.29,18.99,0,110.9,13.07,19.08,76.5
"2016-05-05 00:45:30",1605622,3.649,117.2,2.598,0.129,19.38,107.4192,18.27,19.28,19.17,0,110.9,13.07,19.09,79.2
"2016-05-05 00:46:00",1605623,3.88,118.4,1.747,0.135,19.42,107.421,18.27,19.27,19.43,0,110.9,13.07,19.09,80.4
"2016-05-05 00:46:30",1605624,3.737,117.1,2.874,0.198,19.48,107.4237,18.28,19.28,19.49,0,110.9,13.07,19.10,79.1
"2016-05-05 00:47:00",1605625,3.733,122,2.728,0.135,19.52,107.4237,18.28,19.27,19.51,0,110.9,13.07,19.10,84.0
"2016-05-05 00:47:30",1605626,3.999,118.5,3.236,0.21,19.49,107.4249,18.28,19.28,19.85,0,110.9,13.07,19.10,80.5
"2016-05-05 00:48:00",1605627,3.995,114.7,1.555,0.255,19.48,107.4243,18.28,19.28,19.91,0,110.9,13.07,19.10,76.7
"2016-05-05 00:48:30",1605628,3.662,110.1,2.034,0.082,19.54,107.4232,18.28,19.28,19.6,0,110.9,13.07,19.10,72.1
"2016-05-05 00:49:00",1605629,3.571,112.4,4.349,0.125,19.5,107.4212,18.28,19.26,19.36,0,110.9,13.07,19.09,74.4
"2016-05-05 00:49:30",1605630,3.602,120.6,1.947,0.168,19.53,107.4179,18.27,19.28,19.47,0,110.9,13.07,19.08,82.6
"2016-05-05 00:50:00",1605631,3.627,119.6,2.944,0.102,19.51,107.4162,18.26,19.27,19.38,0,110.9,13.07,19.08,81.6
"2016-05-05 00:50:30",1605632,3.817,115.2,2.926,0.187,19.47,107.4137,18.26,19.27,19.46,0,110.9,13.07,19.07,77.2
"2016-05-05 00:51:00",1605633,3.981,119.1,0.747,0.073,19.6,107.403,18.23,19.27,19.48,0,110.9,13.07,19.04,81.1
"2016-05-05 00:51:30",1605634,3.918,119,0.814,0.049,19.61,107.3937,18.2,19.27,19.4,0,110.9,13.07,19.02,81.0
"2016-05-05 00:52:00",1605635,3.73,119.6,1.942,0.197,19.62,107.3912,18.2,19.28,19.4,0,110.9,13.07,19.01,81.6
"2016-05-05 00:52:30",1605636,3.556,119,3.08,0.104,19.75,107.3912,18.2,19.26,19.32,0,110.9,13.07,19.01,81.0
"2016-05-05 00:53:00",1605637,3.646,120.7,1.212,0.045,19.8,107.3912,18.2,19.25,19.17,0,110.9,13.07,19.01,82.7
"2016-05-05 00:53:30",1605638,3.444,123.8,0.906,0.068,19.98,107.3912,18.2,19.25,18.97,0,110.9,13.07,19.01,85.8
"2016-05-05 00:54:00",1605639,3.266,123.1,1.13,0.126,20.01,107.3912,18.2,19.25,18.91,0,110.9,13.07,19.01,85.1
"2016-05-05 00:54:30",1605640,3.335,122,0.799,0.113,20.07,107.3912,18.2,19.25,18.95,0,110.9,13.07,19.01,84.0
"2016-05-05 00:55:00",1605641,3.368,121.2,0.843,0.066,20.11,107.3906,18.2,19.23,19.08,0,110.9,13.07,19.01,83.2
"2016-05-05 00:55:30",1605642,3.392,125.2,1.535,0.091,20.19,107.3833,18.18,19.23,18.96,0,110.9,13.07,18.99,87.2
"2016-05-05 00:56:00",1605643,3.81,130.2,2.683,0.141,20.22,107.3647,18.13,19.21,18.68,0,110.9,13.07,18.95,92.2
"2016-05-05 00:56:30",1605644,3.725,126.2,1.345,0.207,20.21,107.3574,18.11,19.21,18.54,0,110.9,13.07,18.93,88.2
"2016-05-05 00:57:00",1605645,3.662,128.2,2.075,0.128,20.2,107.3574,18.11,19.19,18.52,0,110.9,13.07,18.93,90.2
"2016-05-05 00:57:30",1605646,3.795,123.5,2.165,0.142,20.21,107.3566,18.11,19.18,18.53,0,110.9,13.07,18.92,85.5
"2016-05-05 00:58:00",1605647,3.946,126.2,1.478,0.1,20.24,107.3442,18.08,19.17,18.55,0,110.9,13.07,18.89,88.2
"2016-05-05 00:58:30",1605648,4.01,129.2,0.982,0.064,20.24,107.3248,18.03,19.15,18.61,0,110.9,13.07,18.84,91.2
"2016-05-05 00:59:00",1605649,3.918,130,1.014,0.102,20.28,107.3237,18.03,19.13,18.64,0,110.9,13.07,18.84,92.0
"2016-05-05 00:59:30",1605650,3.857,126.3,1.106,0.088,20.2,107.324,18.03,19.12,18.65,0,110.9,13.07,18.84,88.3
"2016-05-05 01:00:00",1605651,3.78,127.1,1.699,0.099,20.21,107.3165,18.01,19.12,18.72,0,110.9,13.07,18.82,89.1
"2016-05-05 01:00:30",1605652,3.825,126.9,1.632,0.19,20.21,107.3008,17.97,19.08,18.86,0,110.9,13.07,18.78,88.9
"2016-05-05 01:01:00",1605653,4.018,127.6,1.116,0.101,20.2,107.2984,17.96,19.08,18.84,0,110.9,13.07,18.77,89.6
"2016-05-05 01:01:30",1605654,3.847,125,1.312,0.068,20.15,107.2999,17.96,19.05,18.89,0,110.9,13.08,18.78,87.0
"2016-05-05 01:02:00",1605655,3.829,124.4,2.027,0.128,20.16,107.2933,17.95,19.05,18.93,0,110.9,13.08,18.76,86.4
"2016-05-05 01:02:30",1605656,3.678,119.9,1.185,0.073,20.15,107.2768,17.9,19.03,18.97,0,110.9,13.08,18.72,81.9
"2016-05-05 01:03:00",1605657,3.75,120.6,2.181,0.162,20.13,107.2785,17.91,19.02,19.01,0,110.9,13.08,18.72,82.6
"2016-05-05 01:03:30",1605658,4.033,119.9,0.935,0.058,20.15,107.2881,17.93,18.99,19.04,0,110.9,13.08,18.75,81.9
"2016-05-05 01:04:00",1605659,4.207,120.8,1.26,0.114,20.07,107.2897,17.94,18.97,19.17,0,110.9,13.08,18.75,82.8
"2016-05-05 01:04:30",1605660,4.262,121.2,1.634,0.096,20.07,107.2734,17.9,18.96,19.37,0,110.9,13.08,18.71,83.2
"2016-05-05 01:05:00",1605661,4.05,121.4,0.762,0.069,20.06,107.2586,17.86,18.95,19.39,0,110.9,13.08,18.67,83.4
"2016-05-05 01:05:30",1605662,4.328,118.2,1.829,0.186,20.07,107.2586,17.86,18.93,19.53,0,110.9,13.08,18.67,80.2
"2016-05-05 01:06:00",1605663,4.461,115.8,2.241,0.079,20.13,107.2586,17.86,18.92,19.62,0,110.9,13.08,18.67,77.8
"2016-05-05 01:06:30",1605664,4.259,115.8,2.008,0.101,20.11,107.2538,17.85,18.88,19.66,0,110.9,13.08,18.66,77.8
"2016-05-05 01:07:00",1605665,4.367,116.1,1.284,0.1,20.16,107.2395,17.81,18.88,19.66,0,110.9,13.08,18.62,78.1
"2016-05-05 01:07:30",1605666,4.198,116.6,1.443,0.096,20.15,107.2254,17.77,18.87,19.74,0,110.9,13.08,18.59,78.6
"2016-05-05 01:08:00",1605667,4.08,115.5,1.411,0.112,20.15,107.2248,17.77,18.85,19.8,0,110.9,13.09,18.59,77.5
"2016-05-05 01:08:30",1605668,4.125,114.4,0.847,0.097,20.15,107.2248,17.77,18.84,19.83,0,110.9,13.09,18.59,76.4
"2016-05-05 01:09:00",1605669,4.033,114.4,0.843,0.086,20.13,107.2248,17.77,18.83,19.72,0,110.9,13.08,18.59,76.4
"2016-05-05 01:09:30",1605670,4.14,116,0.939,0.134,20.15,107.2215,17.76,18.81,19.64,0,110.9,13.09,18.58,78.0
"2016-05-05 01:10:00",1605671,4.044,123,3.591,0.112,20.23,107.2116,17.74,18.8,19.36,0,110.9,13.09,18.55,85.0
"2016-05-05 01:10:30",1605672,3.673,121.2,2.784,0.127,20.14,107.1959,17.7,18.78,19.23,0,110.9,13.08,18.51,83.2
"2016-05-05 01:11:00",1605673,3.604,124.5,1.353,0.185,20.12,107.1911,17.69,18.78,19.19,0,110.9,13.08,18.50,86.5
"2016-05-05 01:11:30",1605674,3.758,121.4,1.781,0.134,20.15,107.1911,17.69,18.77,19.24,0,110.8,13.09,18.50,83.4
"2016-05-05 01:12:00",1605675,3.94,120,1.46,0.169,20.14,107.1911,17.69,18.76,19.31,0,110.9,13.08,18.50,82.0
"2016-05-05 01:12:30",1605676,4.041,121.3,0.982,0.083,20.18,107.1911,17.69,18.76,19.29,0,110.9,13.08,18.50,83.3
"2016-05-05 01:13:00",1605677,3.97,121.3,2.061,0.057,20.18,107.1911,17.69,18.75,19.17,0,110.8,13.08,18.50,83.3
"2016-05-05 01:13:30",1605678,3.964,117.8,1.118,0.122,20.19,107.1908,17.68,18.75,19.27,0,110.8,13.08,18.50,79.8
"2016-05-05 01:14:00",1605679,4.053,117.7,0.752,0.114,20.13,107.1849,17.67,18.73,19.19,0,110.8,13.08,18.48,79.7
"2016-05-05 01:14:30",1605680,3.964,120.4,1.205,0.06,20.21,107.1824,17.66,18.72,19.11,0,110.8,13.08,18.48,82.4
"2016-05-05 01:15:00",1605681,4.048,120.7,1.693,0.071,20.22,107.1712,17.63,18.7,19.09,0,110.8,13.08,18.45,82.7
"2016-05-05 01:15:30",1605682,4.108,120.1,0.626,0.055,20.18,107.1606,17.61,18.7,19.09,0,110.8,13.08,18.42,82.1
"2016-05-05 01:16:00",1605683,3.982,121.2,1.434,0.069,20.21,107.1655,17.62,18.68,18.99,0,110.8,13.08,18.43,83.2
"2016-05-05 01:16:30",1605684,3.917,121.8,0.978,0.08,20.18,107.1697,17.63,18.69,18.9,0,110.8,13.08,18.44,83.8
"2016-05-05 01:17:00",1605685,3.841,120.9,0.698,0.053,20.17,107.1706,17.63,18.68,18.88,0,110.8,13.08,18.45,82.9
"2016-05-05 01:17:30",1605686,3.946,119.1,0.825,0.045,20.16,107.1715,17.63,18.67,18.75,0,110.8,13.08,18.45,81.1
"2016-05-05 01:18:00",1605687,3.976,119.8,0.742,0.063,20.14,107.1748,17.64,18.65,18.65,0,110.8,13.09,18.46,81.8
"2016-05-05 01:18:30",1605688,3.975,119.4,1.135,0.118,20.13,107.1766,17.65,18.65,18.81,0,110.8,13.09,18.46,81.4
"2016-05-05 01:19:00",1605689,4.199,119.1,0.663,0.057,20.12,107.1803,17.66,18.67,19.23,0,110.8,13.09,18.47,81.1
"2016-05-05 01:19:30",1605690,4.167,118.1,0.557,0.05,20.04,107.1762,17.65,18.65,19.3,0,110.8,13.09,18.46,80.1
"2016-05-05 01:20:00",1605691,4.169,117.6,0.636,0.064,20.12,107.1719,17.64,18.65,19.39,0,110.8,13.09,18.45,79.6
"2016-05-05 01:20:30",1605692,4.204,117.7,0.645,0.036,20.14,107.1655,17.62,18.65,19.57,0,110.8,13.09,18.43,79.7
"2016-05-05 01:21:00",1605693,4.256,117.1,1.143,0.034,20.2,107.1605,17.61,18.65,19.59,0,110.8,13.09,18.42,79.1
"2016-05-05 01:21:30",1605694,4.198,114.6,0.818,0.038,20.24,107.16,17.61,18.63,19.53,0,110.8,13.09,18.42,76.6
"2016-05-05 01:22:00",1605695,4.241,115.2,0.802,0.073,20.22,107.1591,17.6,18.63,19.69,0,110.8,13.09,18.42,77.2
"2016-05-05 01:22:30",1605696,4.28,116.2,0.509,0.065,20.22,107.1597,17.6,18.63,19.89,0,110.8,13.09,18.42,78.2
"2016-05-05 01:23:00",1605697,4.129,115.9,1.561,0.067,20.19,107.1597,17.6,18.62,20,0,110.8,13.09,18.42,77.9
"2016-05-05 01:23:30",1605698,4.396,117,0.949,0.069,20.24,107.1597,17.6,18.6,20.02,0,110.8,13.09,18.42,79.0
"2016-05-05 01:24:00",1605699,4.328,115.8,1.245,0.073,20.28,107.1597,17.6,18.62,20.05,0,110.8,13.09,18.42,77.8
"2016-05-05 01:24:30",1605700,4.268,117.3,0.93,0.068,20.22,107.1597,17.6,18.61,20.04,0,110.8,13.1,18.42,79.3
"2016-05-05 01:25:00",1605701,4.033,115.4,0.841,0.046,20.13,107.1583,17.6,18.61,19.94,0,110.8,13.1,18.41,77.4
"2016-05-05 01:25:30",1605702,4.082,116.9,1.506,0.142,20.26,107.1519,17.58,18.6,20.07,0,110.8,13.1,18.40,78.9
"2016-05-05 01:26:00",1605703,4.251,123.2,1.659,0.096,20.29,107.1451,17.57,18.6,20.49,0,110.8,13.1,18.38,85.2
"2016-05-05 01:26:30",1605704,4.344,121.3,0.815,0.053,20.23,107.1358,17.54,18.58,20.7,0,110.8,13.1,18.36,83.3
"2016-05-05 01:27:00",1605705,4.284,120.9,1.16,0.056,20.22,107.1262,17.52,18.58,20.8,0,110.8,13.1,18.33,82.9
"2016-05-05 01:27:30",1605706,4.243,120.2,1.676,0.066,20.27,107.126,17.52,18.57,20.95,0,110.8,13.1,18.33,82.2
"2016-05-05 01:28:00",1605707,4.218,118.6,0.665,0.095,20.21,107.126,17.52,18.57,20.9,0,110.8,13.1,18.33,80.6
"2016-05-05 01:28:30",1605708,4.095,121.2,0.897,0.06,20.33,107.126,17.52,18.57,20.86,0,110.8,13.1,18.33,83.2
"2016-05-05 01:29:00",1605709,4.312,120.2,1.408,0.1,20.26,107.126,17.52,18.54,20.96,0,110.8,13.1,18.33,82.2
"2016-05-05 01:29:30",1605710,4.387,120.5,1.037,0.061,20.34,107.126,17.52,18.56,21.03,0,110.8,13.1,18.33,82.5
"2016-05-05 01:30:00",1605711,4.466,118.9,1.676,0.06,20.36,107.1243,17.51,18.55,21,0,110.8,13.09,18.33,80.9
"2016-05-05 01:30:30",1605712,4.416,119.1,0.877,0.04,20.38,107.1181,17.5,18.54,20.95,0,110.8,13.09,18.31,81.1
"2016-05-05 01:31:00",1605713,4.499,118.4,0.548,0.056,20.37,107.1165,17.49,18.54,21.08,0,110.8,13.09,18.31,80.4
"2016-05-05 01:31:30",1605714,4.669,119.4,0.878,0.155,20.32,107.1113,17.48,18.52,21.29,0,110.8,13.09,18.29,81.4
"2016-05-05 01:32:00",1605715,4.936,122.1,0.986,0.063,20.21,107.1069,17.47,18.52,21.41,0,110.8,13.09,18.28,84.1
"2016-05-05 01:32:30",1605716,4.859,121.4,1.025,0.055,20.23,107.1033,17.46,18.53,21.54,0,110.8,13.09,18.27,83.4
"2016-05-05 01:33:00",1605717,4.826,119,0.684,0.067,20.23,107.1088,17.47,18.5,21.65,0,110.8,13.09,18.29,81.0
"2016-05-05 01:33:30",1605718,4.801,119.4,0.578,0.057,20.21,107.1097,17.48,18.5,21.65,0,110.8,13.09,18.29,81.4
"2016-05-05 01:34:00",1605719,4.657,119,0.945,0.059,20.32,107.1118,17.48,18.52,21.61,0,110.8,13.09,18.29,81.0
"2016-05-05 01:34:30",1605720,4.866,120.5,0.717,0.145,20.3,107.1164,17.49,18.5,21.9,0,110.8,13.09,18.31,82.5
"2016-05-05 01:35:00",1605721,4.863,119.7,1.373,0.106,20.23,107.1155,17.49,18.47,22.04,0,110.8,13.09,18.30,81.7
"2016-05-05 01:35:30",1605722,4.956,123.3,0.924,0.056,20.23,107.1134,17.49,18.48,22.23,0,110.8,13.1,18.30,85.3
"2016-05-05 01:36:00",1605723,4.817,120.7,0.771,0.055,20.27,107.1004,17.45,18.47,22.29,0,110.8,13.1,18.27,82.7
"2016-05-05 01:36:30",1605724,4.784,121.7,1.062,0.094,20.35,107.0949,17.44,18.45,22.32,0,110.8,13.11,18.25,83.7
"2016-05-05 01:37:00",1605725,4.775,123.4,0.705,0.108,20.37,107.0946,17.44,18.47,22.76,0,110.8,13.11,18.25,85.4
"2016-05-05 01:37:30",1605726,4.93,123.7,0.711,0.056,20.34,107.0946,17.44,18.46,22.83,0,110.8,13.11,18.25,85.7
"2016-05-05 01:38:00",1605727,4.942,124.2,1.404,0.125,20.31,107.0946,17.44,18.45,22.66,0,110.8,13.11,18.25,86.2
"2016-05-05 01:38:30",1605728,4.904,125.3,0.824,0.038,20.46,107.0946,17.44,18.44,22.8,0,110.8,13.11,18.25,87.3
"2016-05-05 01:39:00",1605729,4.828,124.4,0.354,0.069,20.43,107.0946,17.44,18.45,22.92,0,110.8,13.11,18.25,86.4
"2016-05-05 01:39:30",1605730,4.876,125.6,0.725,0.055,20.49,107.0943,17.44,18.42,23.04,0,110.8,13.11,18.25,87.6
"2016-05-05 01:40:00",1605731,4.973,126.2,0.735,0.05,20.44,107.0873,17.42,18.42,23.19,0,110.8,13.11,18.23,88.2
"2016-05-05 01:40:30",1605732,4.974,126.8,0.924,0.065,20.45,107.0814,17.4,18.42,23.19,0,110.8,13.11,18.22,88.8
"2016-05-05 01:41:00",1605733,5.035,124.2,0.535,0.084,20.35,107.0766,17.39,18.4,23.14,0,110.8,13.11,18.20,86.2
"2016-05-05 01:41:30",1605734,5.01,124.7,0.533,0.082,20.32,107.0664,17.37,18.4,23.18,0,110.8,13.11,18.18,86.7
"2016-05-05 01:42:00",1605735,5.056,124.2,0.527,0.129,20.29,107.0608,17.35,18.4,23.07,0,110.8,13.11,18.16,86.2
"2016-05-05 01:42:30",1605736,5.106,125.3,0.744,0.098,20.25,107.0608,17.35,18.39,23.12,0,110.8,13.11,18.16,87.3
"2016-05-05 01:43:00",1605737,5.02,125.4,0.737,0.052,20.33,107.0608,17.35,18.39,23.14,0,110.8,13.11,18.16,87.4
"2016-05-05 01:43:30",1605738,5.007,124.6,0.795,0.071,20.3,107.0608,17.35,18.38,23.11,0,110.8,13.11,18.16,86.6
"2016-05-05 01:44:00",1605739,5.219,125.1,0.937,0.095,20.19,107.0608,17.35,18.37,23.09,0,110.8,13.11,18.16,87.1
"2016-05-05 01:44:30",1605740,5.287,123.2,0.811,0.062,20.31,107.0608,17.35,18.37,23.09,0,110.8,13.11,18.16,85.2
"2016-05-05 01:45:00",1605741,5.345,123.6,0.84,0.065,20.3,107.0586,17.35,18.36,23.08,0,110.8,13.11,18.16,85.6
"2016-05-05 01:45:30",1605742,5.35,125.8,0.907,0.102,20.21,107.0538,17.33,18.37,23.26,0,110.8,13.11,18.15,87.8
"2016-05-05 01:46:00",1605743,5.427,126.3,0.894,0.042,20.19,107.0504,17.32,18.35,23.44,0,110.8,13.11,18.14,88.3
"2016-05-05 01:46:30",1605744,5.438,124.7,1.855,0.105,20.29,107.0431,17.31,18.31,23.47,0,110.8,13.11,18.12,86.7
"2016-05-05 01:47:00",1605745,5.328,125.2,1.251,0.093,20.22,107.0301,17.27,18.34,23.45,0,110.8,13.11,18.08,87.2
"2016-05-05 01:47:30",1605746,5.444,126.3,0.52,0.042,20.28,107.0279,17.27,18.34,23.38,0,110.8,13.11,18.08,88.3
"2016-05-05 01:48:00",1605747,5.429,126.9,0.768,0.051,20.25,107.027,17.26,18.33,23.22,0,110.7,13.11,18.08,88.9